QPF
0.00 0.00 0.00 0.00 0.00 0.00 0.00 0.00 0.00 0.00 0.00 0.01 0.05 0.06 0.06 0.04 0.02 0.08 0.07 0.03 0.01 0.00 0.00 0.00 0.00 0.00 0.00 0.00 0.00 0.00 0.00 0.00 0.01 0.00 0.00 0.00 0.00 0.01 0.00 0.00 0.00 0.00 0.00
0.00 0.00 0.00 0.00 0.00 0.00 0.00 0.00 0.00 0.00 0.00 0.03 0.08 0.05 0.06 0.06 0.05 0.06 0.05 0.02 0.02 0.01 0.00 0.01 0.02 0.01 0.01 0.00 0.00 0.00 0.01 0.01 0.01 0.03 0.01 0.00 0.02 0.02 0.01 0.00 0.00 0.00 0.00
0.00 0.00 0.00 0.00 0.00 0.00 0.00 0.00 0.00 0.00 0.00 0.00 0.06 0.02 0.06 0.08 0.06 0.04 0.11 0.05 0.02 0.01 0.02 0.01 0.00 0.00 0.01 0.02 0.00 0.00 0.01 0.03 0.06 0.06 0.06 0.01 0.03 0.08 0.11 0.04 0.01 0.00 0.00
0.00 0.00 0.00 0.00 0.00 0.00 0.00 0.00 0.00 0.00 0.00 0.00 0.00 0.03 0.02 0.03 0.06 0.05 0.13 0.07 0.04 0.04 0.02 0.01 0.00 0.01 0.02 0.02 0.02 0.05 0.05 0.05 0.06 0.07 0.06 0.09 0.15 0.06 0.05 0.04 0.04 0.05 0.01
0.00 0.00 0.00 0.00 0.00 0.00 0.00 0.00 0.00 0.00 0.00 0.00 0.00 0.00 0.00 0.00 0.00 0.06 0.11 0.02 0.02 0.00 0.00 0.00 0.00 0.02 0.03 0.02 0.08 0.13 0.08 0.10 0.10 0.13 0.09 0.12 0.16 0.11 0.07 0.07 0.05 0.06 0.05
0.00 0.00 0.00 0.00 0.00 0.00 0.00 0.00 0.00 0.00 0.00 0.00 0.00 0.01 0.01 0.00 0.00 0.00 0.04 0.07 0.02 0.00 0.00 0.00 0.00 0.01 0.08 0.05 0.00 0.02 0.08 0.12 0.14 0.10 0.11 0.11 0.09 0.06 0.05 0.04 0.06 0.06 0.08
0.00 0.00 0.00 0.00 0.00 0.00 0.00 0.00 0.00 0.00 0.01 0.00 0.00 0.00 0.00 0.01 0.02 0.00 0.00 0.06 0.08 0.01 0.04 0.02 0.06 0.03 0.10 0.06 0.01 0.01 0.03 0.03 0.01 0.01 0.03 0.03 0.04 0.01 0.00 0.00 0.02 0.05 0.06
0.00 0.00 0.00 0.00 0.00 0.00 0.00 0.00 0.00 0.00 0.00 0.02 0.02 0.00 0.00 0.00 0.00 0.00 0.00 0.05 0.06 0.02 0.02 0.01 0.01 0.01 0.00 0.00 0.00 0.00 0.00 0.00 0.00 0.00 0.00 0.00 0.00 0.00 0.00 0.00 0.00 0.00 0.00
0.00 0.00 0.00 0.00 0.00 0.00 0.00 0.00 0.00 0.00 0.00 0.01 0.02 0.01 0.00 0.00 0.00 0.00 0.00 0.00 0.00 0.00 0.01 0.03 0.03 0.00 0.01 0.00 0.00 0.00 0.00 0.00 0.00 0.00 0.00 0.00 0.00 0.00 0.00 0.00 0.00 0.01 0.02
0.00 0.00 0.00 0.01 0.01 0.01 0.02 0.02 0.01 0.00 0.00 0.03 0.02 0.00 0.00 0.01 0.00 0.00 0.00 0.03 0.04 0.06 0.03 0.03 0.11 0.07 0.03 0.02 0.00 0.01 0.01 0.00 0.00 0.00 0.00 0.00 0.00 0.00 0.00 0.00 0.00 0.00 0.00
0.00 0.00 0.01 0.01 0.05 0.08 0.07 0.05 0.03 0.01 0.02 0.03 0.02 0.00 0.00 0.00 0.00 0.00 0.01 0.04 0.04 0.02 0.01 0.01 0.01 0.05 0.04 0.03 0.01 0.01 0.03 0.00 0.00 0.00 0.00 0.00 0.00 0.00 0.00 0.00 0.00 0.00 0.00
0.01 0.00 0.00 0.01 0.03 0.06 0.07 0.04 0.03 0.02 0.02 0.03 0.01 0.00 0.00 0.00 0.00 0.00 0.00 0.00 0.00 0.00 0.01 0.02 0.03 0.02 0.01 0.00 0.00 0.00 0.00 0.00 0.00 0.00 0.00 0.00 0.00 0.00 0.00 0.00 0.00 0.00 0.00
0.01 0.01 0.00 0.01 0.03 0.04 0.04 0.03 0.03 0.04 0.04 0.03 0.01 0.01 0.00 0.00 0.00 0.00 0.00 0.00 0.00 0.00 0.00 0.00 0.00 0.00 0.00 0.00 0.00 0.00 0.00 0.00 0.00 0.00 0.00 0.00 0.00 0.00 0.00 0.00 0.00 0.00 0.00
0.01 0.00 0.00 0.00 0.00 0.01 0.01 0.01 0.01 0.01 0.01 0.01 0.00 0.00 0.00 0.00 0.00 0.00 0.00 0.00 0.00 0.00 0.00 0.00 0.00 0.00 0.00 0.00 0.00 0.00 0.00 0.00 0.00 0.00 0.00 0.00 0.00 0.00 0.00 0.00 0.00 0.00 0.00
0.01 0.00 0.00 0.00 0.00 0.00 0.00 0.00 0.00 0.00 0.00 0.00 0.00 0.00 0.00 0.00 0.00 0.00 0.00 0.00 0.00 0.00 0.00 0.00 0.00 0.00 0.00 0.00 0.00 0.00 0.00 0.00 0.00 0.00 0.00 0.00 0.00 0.00 0.00 0.00 0.00 0.00 0.00
0.02 0.00 0.00 0.00 0.00 0.00 0.00 0.00 0.00 0.00 0.00 0.00 0.00 0.00 0.00 0.00 0.00 0.00 0.00 0.00 0.00 0.00 0.00 0.00 0.00 0.00 0.00 0.00 0.00 0.00 0.00 0.00 0.00 0.00 0.00 0.00 0.00 0.00 0.00 0.00 0.00 0.00 0.00
0.03 0.00 0.00 0.00 0.00 0.00 0.00 0.00 0.00 0.00 0.00 0.00 0.00 0.00 0.00 0.00 0.00 0.00 0.00 0.00 0.00 0.00 0.00 0.00 0.00 0.00 0.00 0.00 0.00 0.00 0.00 0.00 0.00 0.00 0.00 0.00 0.00 0.00 0.00 0.00 0.00 0.00 0.00
0.09 0.02 0.00 0.00 0.00 0.00 0.00 0.00 0.00 0.00 0.00 0.00 0.00 0.00 0.00 0.00 0.00 0.00 0.00 0.00 0.00 0.00 0.00 0.00 0.00 0.00 0.00 0.00 0.00 0.00 0.00 0.00 0.00 0.00 0.00 0.00 0.00 0.00 0.00 0.00 0.00 0.00 0.00
0.04 0.02 0.00 0.00 0.00 0.00 0.00 0.00 0.00 0.00 0.00 0.00 0.00 0.00 0.00 0.00 0.00 0.00 0.00 0.00 0.00 0.00 0.00 0.00 0.00 0.00 0.00 0.00 0.00 0.00 0.00 0.00 0.00 0.00 0.00 0.00 0.00 0.00 0.00 0.00 0.00 0.00 0.00
0.02 0.00 0.00 0.00 0.00 0.00 0.00 0.00 0.00 0.00 0.00 0.00 0.00 0.00 0.00 0.00 0.00 0.00 0.00 0.00 0.00 0.00 0.00 0.00 0.00 0.00 0.00 0.00 0.00 0.00 0.00 0.00 0.00 0.00 0.00 0.00 0.00 0.00 0.00 0.00 0.00 0.00 0.00
0.04 0.02 0.01 0.01 0.01 0.03 0.01 0.01 0.01 0.01 0.00 0.00 0.00 0.00 0.00 0.00 0.00 0.00 0.00 0.00 0.00 0.00 0.00 0.00 0.00 0.00 0.00 0.00 0.00 0.00 0.00 0.00 0.00 0.00 0.00 0.00 0.00 0.00 0.00 0.00 0.00 0.00 0.00
0.03 0.03 0.02 0.01 0.00 0.01 0.00 0.00 0.00 0.00 0.00 0.00 0.00 0.00 0.00 0.00 0.00 0.00 0.00 0.00 0.00 0.00 0.00 0.00 0.00 0.00 0.00 0.00 0.00 0.00 0.00 0.00 0.00 0.00 0.00 0.00 0.00 0.00 0.00 0.00 0.00 0.00 0.00
0.03 0.01 0.00 0.00 0.00 0.00 0.00 0.00 0.00 0.00 0.00 0.00 0.00 0.00 0.00 0.00 0.00 0.00 0.00 0.00 0.00 0.00 0.00 0.00 0.00 0.00 0.00 0.00 0.00 0.00 0.00 0.00 0.00 0.00 0.00 0.00 0.00 0.00 0.00 0.00 0.00 0.00 0.00
0.00 0.00 0.00 0.00 0.00 0.00 0.00 0.00 0.00 0.00 0.00 0.00 0.00 0.00 0.00 0.00 0.00 0.00 0.00 0.00 0.00 0.00 0.00 0.00 0.00 0.00 0.00 0.00 0.00 0.00 0.00 0.00 0.00 0.00 0.00 0.00 0.00 0.00 0.00 0.00 0.00 0.00 0.00
0.00 0.00 0.00 0.00 0.00 0.00 0.00 0.00 0.00 0.00 0.00 0.00 0.00 0.00 0.00 0.00 0.00 0.00 0.00 0.00 0.00 0.00 0.00 0.00 0.00 0.00 0.00 0.00 0.00 0.00 0.00 0.00 0.00 0.00 0.00 0.00 0.00 0.00 0.00 0.00 0.00 0.00 0.00
0.00 0.00 0.00 0.00 0.00 0.00 0.00 0.00 0.00 0.00 0.00 0.00 0.00 0.00 0.00 0.00 0.00 0.00 0.00 0.00 0.00 0.00 0.00 0.00 0.00 0.00 0.00 0.00 0.00 0.00 0.00 0.00 0.00 0.00 0.00 0.00 0.00 0.00 0.00 0.00 0.00 0.00 0.00
MSLP
1013.43 1013.92 1014.46 1014.91 1015.37 1015.84 1015.96 1016.21 1016.35 1016.53 1016.69 1016.86 1017.05 1017.41 1017.59 1017.60 1017.72 1017.99 1018.01 1018.01 1018.27 1018.23 1018.32 1018.34 1018.37 1018.36 1017.97 1017.42 1017.17 1017.20 1017.47 1017.51 1016.77 1015.95 1015.95 1016.30 1017.18 1017.24 1016.91 1017.41 1017.75 1017.41 1018.54
1012.72 1013.34 1013.82 1014.29 1014.69 1014.95 1015.41 1015.62 1015.93 1016.21 1016.42 1016.63 1016.90 1017.11 1017.31 1017.31 1017.52 1017.76 1017.78 1017.50 1017.98 1018.00 1017.93 1018.10 1018.30 1017.81 1018.03 1017.98 1017.65 1017.64 1017.58 1017.72 1017.35 1016.97 1016.78 1016.56 1016.83 1017.01 1017.16 1017.35 1017.09 1017.16 1017.29
1012.41 1012.77 1013.28 1013.61 1013.98 1014.31 1014.52 1015.02 1015.33 1015.70 1016.01 1016.19 1016.57 1016.64 1016.73 1016.90 1017.11 1017.25 1017.48 1017.57 1017.53 1017.67 1017.67 1017.82 1017.76 1017.80 1017.88 1017.69 1017.77 1017.42 1016.98 1017.13 1017.40 1017.43 1017.37 1016.94 1016.50 1016.76 1017.25 1017.23 1017.18 1017.02 1017.37
1011.82 1012.21 1012.61 1013.08 1013.40 1013.67 1013.94 1014.30 1014.64 1015.02 1015.41 1015.71 1015.93 1016.22 1016.45 1016.44 1016.60 1016.62 1016.93 1017.40 1017.35 1017.40 1017.41 1017.41 1017.51 1017.53 1017.58 1017.67 1017.56 1017.68 1017.89 1017.69 1017.39 1017.66 1017.23 1017.30 1017.30 1017.09 1017.02 1016.61 1016.46 1017.02 1016.75
1011.56 1011.80 1012.11 1012.64 1012.97 1013.32 1013.50 1013.69 1013.95 1014.30 1014.64 1015.03 1015.29 1015.58 1015.79 1015.85 1015.84 1016.17 1016.54 1016.71 1016.92 1017.01 1016.98 1017.00 1017.00 1017.16 1017.63 1017.90 1017.89 1017.83 1017.77 1017.70 1017.64 1017.63 1017.49 1017.33 1017.19 1017.08 1016.98 1017.09 1017.05 1017.33 1017.36
1011.21 1011.20 1011.54 1011.91 1012.48 1012.70 1013.02 1013.30 1013.50 1013.73 1013.97 1014.21 1014.51 1014.88 1015.19 1015.32 1015.27 1015.91 1016.39 1016.54 1016.59 1016.64 1016.63 1016.65 1016.82 1017.13 1017.32 1017.71 1017.91 1018.05 1018.05 1017.90 1017.89 1017.81 1017.46 1017.49 1017.43 1017.51 1017.48 1017.33 1017.43 1017.53 1017.82
1010.73 1010.88 1011.09 1011.37 1011.71 1012.08 1012.32 1012.71 1012.85 1013.10 1013.26 1013.59 1013.87 1014.16 1014.44 1014.87 1015.46 1015.78 1016.24 1016.40 1016.56 1016.34 1016.37 1016.59 1016.58 1016.93 1017.26 1017.43 1017.84 1018.02 1018.16 1018.31 1018.23 1017.85 1017.75 1018.00 1018.11 1018.49 1018.57 1017.91 1017.67 1017.74 1018.09
1010.73 1010.63 1010.68 1010.79 1011.03 1011.35 1011.65 1011.93 1012.16 1012.42 1012.68 1012.80 1013.08 1013.48 1013.92 1014.26 1014.77 1015.34 1015.85 1015.97 1016.02 1015.94 1016.06 1016.39 1016.53 1016.69 1017.25 1017.51 1017.75 1017.95 1018.35 1018.54 1018.60 1017.91 1018.22 1018.96 1019.23 1018.94 1018.57 1018.15 1018.32 1018.52 1018.56
1010.38 1010.32 1010.23 1010.20 1010.29 1010.52 1010.89 1011.19 1011.36 1011.68 1011.89 1012.11 1012.44 1012.78 1013.27 1013.77 1014.55 1015.02 1015.55 1015.27 1015.13 1015.47 1015.90 1016.46 1016.84 1017.07 1017.64 1017.80 1017.43 1017.52 1018.47 1018.83 1019.43 1019.59 1019.64 1019.78 1019.83 1019.62 1019.20 1018.42 1018.45 1018.17 1018.45
1010.24 1010.01 1009.87 1009.78 1009.85 1010.04 1010.26 1010.47 1010.67 1010.90 1011.00 1011.29 1011.87 1012.25 1012.68 1013.30 1014.52 1015.05 1015.40 1015.03 1015.14 1015.71 1016.59 1017.14 1017.43 1017.84 1018.06 1018.20 1017.90 1017.58 1018.05 1018.94 1019.12 1019.52 1019.94 1020.01 1019.72 1019.76 1019.63 1019.22 1019.05 1018.34 1018.38
1010.16 1009.99 1009.87 1009.90 1009.73 1009.84 1010.08 1010.15 1010.23 1010.29 1010.53 1011.19 1011.55 1011.93 1012.48 1013.36 1014.44 1014.88 1015.17 1015.26 1015.42 1016.06 1016.77 1017.61 1018.00 1018.18 1018.48 1018.50 1018.10 1017.69 1017.99 1018.70 1019.43 1019.77 1019.99 1020.02 1019.95 1019.54 1019.65 1019.73 1019.89 1019.14 1018.62
1009.88 1010.02 1010.20 1010.43 1010.43 1010.27 1010.28 1010.38 1010.35 1010.34 1010.92 1011.50 1012.07 1012.64 1013.15 1013.82 1014.34 1014.93 1015.14 1015.55 1015.78 1016.03 1016.97 1017.86 1018.43 1018.65 1018.89 1018.68 1018.66 1018.79 1019.00 1019.34 1019.74 1020.06 1020.18 1020.15 1019.87 1019.70 1019.83 1020.01 1020.25 1019.87 1019.64
1009.86 1010.01 1010.58 1010.94 1011.10 1011.09 1010.97 1011.11 1011.30 1011.39 1011.68 1012.19 1012.61 1013.01 1013.57 1014.30 1014.90 1015.10 1015.45 1015.77 1016.36 1016.84 1017.28 1018.03 1018.82 1019.13 1019.24 1019.23 1019.35 1019.52 1019.67 1019.61 1019.59 1019.81 1019.88 1019.80 1019.62 1019.61 1019.75 1019.73 1019.91 1019.94 1019.94
1009.75 1010.39 1010.95 1011.25 1011.63 1011.77 1011.80 1011.69 1011.97 1012.19 1012.47 1012.77 1013.18 1013.65 1014.16 1014.59 1015.08 1015.59 1016.13 1016.53 1016.83 1017.57 1018.17 1018.69 1019.15 1019.22 1019.45 1019.39 1019.49 1019.54 1019.76 1019.72 1019.27 1019.19 1019.27 1019.32 1019.13 1019.03 1019.24 1019.18 1018.98 1018.97 1018.86
1010.25 1010.69 1011.18 1011.64 1012.29 1012.74 1013.22 1013.37 1013.01 1012.94 1012.74 1012.86 1013.25 1013.66 1014.13 1014.67 1014.93 1015.62 1015.86 1016.55 1017.15 1017.49 1018.05 1018.50 1019.39 1019.42 1019.46 1019.76 1019.41 1019.40 1019.73 1019.69 1019.21 1019.26 1019.48 1019.47 1019.35 1019.20 1019.34 1019.38 1019.21 1018.91 1018.80
1010.31 1010.89 1011.41 1012.03 1012.58 1012.97 1013.51 1013.96 1014.06 1013.82 1012.96 1013.29 1013.72 1014.16 1014.76 1014.98 1015.17 1015.83 1016.46 1016.95 1017.40 1017.97 1018.37 1018.62 1018.90 1019.46 1019.59 1019.35 1019.56 1019.90 1019.99 1019.60 1019.67 1019.49 1019.63 1019.69 1019.67 1019.57 1019.38 1019.47 1019.45 1019.20 1019.08
1010.50 1011.14 1011.78 1012.26 1012.66 1013.16 1013.64 1013.92 1014.39 1014.64 1014.14 1014.39 1014.54 1015.07 1015.71 1016.13 1016.23 1016.58 1016.71 1017.69 1017.96 1018.30 1018.60 1018.44 1018.83 1018.99 1019.68 1019.98 1019.50 1019.42 1019.61 1020.29 1020.38 1020.09 1020.06 1020.09 1020.05 1019.87 1019.93 1019.73 1019.51 1019.62 1019.55
1010.71 1011.28 1011.65 1012.04 1012.43 1013.12 1013.51 1013.82 1014.25 1014.76 1015.22 1015.91 1016.08 1016.09 1016.56 1016.86 1017.16 1017.74 1017.60 1018.28 1018.57 1018.41 1018.85 1018.45 1018.56 1019.01 1019.48 1019.79 1019.93 1020.06 1020.39 1020.55 1020.68 1020.60 1020.47 1020.45 1020.56 1020.44 1020.03 1020.09 1020.24 1020.22 1020.37
1010.95 1011.14 1011.47 1011.50 1011.98 1012.57 1012.89 1013.53 1014.51 1015.21 1015.87 1016.20 1016.71 1017.01 1017.39 1017.66 1017.75 1017.85 1018.05 1017.72 1017.67 1017.74 1017.90 1018.18 1018.73 1019.17 1019.69 1020.01 1020.39 1020.59 1020.58 1020.69 1020.76 1020.79 1020.98 1021.21 1021.17 1020.97 1020.66 1020.64 1020.95 1021.08 1021.05
1011.10 1011.29 1011.79 1011.80 1012.25 1012.64 1012.66 1013.07 1013.85 1014.68 1015.18 1015.41 1015.62 1016.35 1017.20 1017.75 1017.74 1017.54 1017.14 1017.12 1017.29 1017.40 1017.93 1018.41 1018.74 1019.13 1019.73 1020.03 1020.25 1020.48 1020.75 1020.79 1020.96 1021.14 1021.21 1021.35 1021.37 1020.92 1020.66 1020.85 1020.91 1020.65 1020.75
1011.39 1011.87 1012.15 1012.25 1012.70 1013.21 1013.51 1013.96 1014.13 1014.43 1014.25 1014.56 1014.97 1015.64 1016.12 1015.71 1016.14 1016.35 1016.38 1016.77 1016.93 1017.17 1017.51 1017.89 1018.41 1018.94 1019.40 1019.60 1019.99 1020.11 1020.17 1020.57 1020.98 1021.16 1021.18 1021.37 1021.20 1020.93 1021.11 1021.10 1020.95 1020.84 1020.94
1011.17 1011.37 1012.15 1012.48 1013.04 1012.97 1013.23 1013.59 1013.40 1013.44 1013.68 1014.21 1015.14 1015.98 1016.20 1015.29 1015.75 1016.08 1016.43 1016.71 1017.02 1017.26 1017.49 1017.96 1018.26 1018.60 1018.90 1019.29 1019.73 1019.76 1020.02 1020.31 1020.62 1020.83 1020.97 1021.03 1021.08 1021.09 1021.09 1021.21 1021.06 1020.87 1020.89
1011.55 1010.51 1011.49 1012.11 1012.51 1012.92 1013.20 1013.04 1013.03 1013.37 1013.79 1014.25 1014.93 1015.45 1015.25 1015.26 1015.58 1015.93 1016.41 1016.67 1017.04 1017.25 1017.49 1017.69 1018.01 1018.30 1018.65 1019.03 1019.34 1019.61 1019.71 1019.81 1020.15 1020.56 1020.69 1020.85 1020.86 1020.87 1020.92 1020.95 1020.96 1020.82 1020.88
1012.70 1011.92 1011.86 1011.96 1012.50 1012.84 1013.23 1013.59 1013.77 1014.10 1014.34 1014.71 1014.89 1015.22 1015.29 1015.61 1015.78 1016.26 1016.44 1016.81 1017.09 1017.19 1017.49 1017.68 1017.76 1017.93 1018.29 1018.71 1019.06 1019.41 1019.49 1019.82 1020.20 1020.54 1020.73 1020.75 1020.80 1021.11 1021.06 1021.11 1020.96 1021.16 1021.09
1011.93 1011.72 1011.96 1011.98 1012.11 1012.36 1013.01 1013.23 1013.76 1014.03 1014.29 1014.65 1014.93 1015.13 1015.37 1015.69 1016.07 1016.44 1016.70 1016.93 1017.19 1017.22 1017.55 1017.59 1017.66 1017.88 1018.20 1018.45 1018.51 1019.13 1020.04 1020.49 1020.34 1020.80 1020.75 1021.02 1021.21 1021.44 1021.25 1021.04 1021.18 1021.14 1021.33
1011.04 1011.33 1011.56 1011.63 1011.84 1012.32 1012.72 1013.14 1013.65 1013.99 1014.32 1014.65 1015.14 1015.53 1015.84 1016.18 1016.49 1016.80 1017.06 1017.20 1017.33 1017.58 1017.79 1017.89 1018.05 1018.27 1018.16 1018.18 1018.49 1019.25 1020.31 1020.71 1020.97 1021.29 1020.93 1021.05 1021.13 1021.18 1021.25 1021.38 1021.51 1021.10 1021.48
Thickness
5771 5770 5769 5769 5770 5768 5768 5768 5769 5769 5770 5770 5771 5769 5768 5770 5771 5769 5771 5772 5770 5771 5771 5771 5770 5771 5773 5778 5781 5780 5775 5773 5769 5782 5787 5786 5776 5775 5777 5773 5770 5772 5764
5774 5772 5770 5771 5772 5773 5771 5772 5772 5770 5771 5771 5770 5770 5769 5770 5771 5768 5769 5773 5768 5768 5769 5768 5767 5773 5770 5771 5774 5772 5772 5772 5770 5766 5775 5778 5775 5775 5772 5771 5772 5770 5768
5774 5773 5772 5772 5772 5772 5775 5774 5775 5774 5773 5773 5771 5771 5772 5773 5772 5772 5770 5769 5769 5769 5770 5769 5769 5770 5768 5771 5770 5772 5777 5775 5771 5766 5764 5774 5777 5775 5768 5768 5768 5767 5762
5776 5775 5773 5773 5774 5774 5775 5776 5777 5776 5775 5774 5774 5773 5772 5774 5774 5775 5773 5768 5769 5769 5770 5771 5770 5770 5769 5769 5770 5768 5767 5767 5769 5764 5766 5764 5764 5767 5767 5766 5765 5761 5761
5774 5775 5774 5773 5774 5774 5775 5776 5777 5778 5777 5776 5776 5776 5776 5776 5777 5775 5772 5771 5769 5768 5770 5771 5772 5771 5767 5766 5767 5766 5766 5764 5763 5760 5758 5758 5758 5758 5757 5758 5755 5752 5752
5770 5774 5774 5774 5773 5773 5774 5775 5777 5776 5777 5778 5776 5776 5775 5777 5779 5773 5770 5768 5768 5767 5767 5769 5770 5767 5766 5762 5760 5759 5759 5758 5755 5752 5754 5752 5754 5754 5753 5751 5748 5743 5737
5771 5772 5773 5773 5773 5773 5774 5774 5775 5776 5778 5777 5777 5776 5775 5776 5771 5770 5766 5766 5763 5765 5766 5764 5765 5764 5759 5760 5754 5753 5751 5749 5748 5751 5748 5747 5745 5741 5738 5740 5741 5737 5730
5764 5768 5771 5773 5773 5774 5774 5774 5775 5775 5775 5777 5778 5777 5775 5776 5772 5767 5764 5766 5765 5765 5764 5762 5761 5761 5756 5753 5750 5747 5743 5742 5740 5744 5741 5735 5731 5731 5731 5733 5728 5723 5721
5759 5762 5767 5772 5774 5774 5772 5772 5774 5772 5773 5775 5776 5776 5774 5773 5767 5762 5760 5766 5765 5762 5761 5758 5754 5752 5745 5743 5747 5744 5735 5731 5726 5724 5723 5721 5719 5719 5719 5722 5717 5716 5707
5752 5758 5763 5766 5769 5768 5769 5771 5773 5774 5775 5776 5773 5774 5773 5770 5759 5756 5755 5759 5755 5753 5747 5744 5740 5737 5735 5732 5737 5737 5730 5720 5719 5716 5713 5710 5709 5707 5706 5705 5704 5705 5701
5748 5751 5754 5757 5761 5762 5763 5766 5768 5770 5771 5768 5768 5768 5767 5763 5753 5749 5747 5749 5747 5742 5737 5732 5730 5727 5725 5724 5727 5730 5725 5718 5710 5706 5702 5700 5697 5697 5693 5690 5686 5689 5690
5744 5745 5745 5744 5747 5751 5753 5754 5757 5761 5759 5756 5754 5752 5751 5749 5746 5741 5740 5737 5737 5735 5727 5721 5716 5715 5712 5713 5714 5709 5707 5702 5697 5692 5689 5685 5685 5685 5681 5676 5672 5672 5672
5735 5737 5734 5733 5734 5736 5739 5740 5741 5743 5742 5741 5740 5740 5738 5735 5732 5730 5729 5727 5723 5719 5717 5710 5704 5702 5701 5700 5697 5694 5691 5690 5687 5682 5678 5676 5677 5674 5670 5667 5663 5662 5659
5727 5723 5722 5722 5721 5722 5724 5728 5731 5731 5729 5728 5727 5726 5725 5723 5720 5718 5715 5712 5709 5704 5699 5695 5692 5690 5688 5687 5685 5683 5678 5677 5679 5676 5673 5671 5669 5666 5661 5662 5662 5660 5657
5713 5713 5713 5713 5709 5707 5703 5705 5715 5714 5719 5722 5720 5718 5715 5715 5714 5708 5706 5701 5697 5694 5689 5685 5677 5676 5674 5671 5671 5671 5666 5664 5665 5663 5659 5655 5654 5653 5650 5650 5649 5649 5645
5704 5704 5703 5700 5699 5699 5698 5696 5693 5697 5705 5704 5702 5703 5700 5700 5700 5695 5689 5683 5680 5676 5675 5673 5670 5662 5659 5661 5657 5652 5650 5651 5648 5648 5646 5644 5642 5641 5641 5640 5638 5636 5632
5696 5694 5691 5690 5689 5688 5687 5689 5688 5684 5687 5684 5685 5683 5681 5680 5681 5678 5678 5669 5666 5665 5662 5664 5659 5655 5648 5644 5647 5647 5644 5637 5635 5637 5637 5635 5634 5633 5631 5628 5628 5622 5618
5688 5684 5686 5686 5685 5681 5681 5681 5680 5676 5675 5669 5668 5668 5665 5665 5664 5659 5660 5654 5651 5652 5648 5650 5649 5645 5641 5636 5634 5633 5629 5628 5627 5627 5627 5625 5621 5618 5619 5614 5609 5604 5597
5679 5681 5683 5687 5685 5681 5681 5677 5668 5663 5659 5659 5657 5656 5653 5651 5651 5651 5649 5652 5652 5650 5648 5644 5640 5637 5631 5628 5624 5623 5623 5621 5620 5618 5614 5609 5606 5603 5602 5598 5591 5581 5576
5672 5672 5672 5676 5674 5672 5674 5671 5666 5659 5657 5658 5660 5657 5651 5647 5647 5647 5650 5650 5648 5646 5642 5638 5635 5633 5626 5623 5620 5618 5615 5613 5611 5606 5602 5598 5595 5596 5593 5586 5580 5576 5569
5660 5659 5659 5665 5661 5656 5655 5651 5651 5651 5657 5658 5657 5653 5650 5657 5652 5651 5651 5647 5645 5643 5641 5639 5634 5629 5624 5621 5616 5614 5613 5607 5601 5597 5594 5589 5587 5584 5577 5572 5567 5561 5553
5653 5657 5652 5650 5649 5651 5650 5651 5654 5657 5657 5654 5648 5644 5641 5653 5649 5647 5645 5643 5641 5639 5637 5632 5629 5625 5621 5616 5611 5609 5605 5601 5596 5591 5586 5581 5576 5571 5565 5557 5552 5546 5539
5644 5638 5648 5648 5647 5644 5645 5648 5650 5651 5650 5649 5646 5643 5647 5648 5647 5644 5641 5639 5636 5633 5630 5628 5625 5622 5617 5611 5607 5603 5599 5596 5590 5582 5577 5571 5566 5560 5553 5546 5539 5533 5527
5615 5634 5638 5641 5641 5641 5640 5637 5639 5639 5640 5640 5641 5640 5641 5641 5641 5638 5637 5634 5631 5629 5626 5623 5621 5617 5613 5608 5602 5597 5592 5586 5579 5572 5565 5560 5554 5545 5539 5532 5527 5518 5511
5622 5628 5631 5636 5640 5642 5639 5640 5637 5639 5639 5638 5637 5638 5638 5636 5633 5631 5629 5627 5623 5622 5617 5616 5614 5610 5605 5601 5598 5590 5581 5573 5569 5559 5553 5545 5537 5530 5527 5522 5513 5506 5498
5631 5632 5635 5640 5640 5640 5640 5639 5637 5637 5637 5636 5633 5631 5629 5627 5625 5623 5620 5618 5616 5612 5609 5606 5602 5599 5598 5595 5589 5581 5571 5561 5551 5543 5538 5532 5527 5521 5515 5507 5499 5497 5489